Jackson Hawkins Field, MS

6:54 PM CDT on September 19, 2019 (GMT -0500)
Hawkins

Weather History for KHKS - July, 2019

Change the Weather History Date:

Friday, July 12, 2019

  Actual Average (KJAN) Record (KJAN)
Temperature  
Mean Temperature 84 °F -  
Max Temperature 93 °F 93 °F 106 °F (1930)
Min Temperature 75 °F 71 °F 61 °F (1900)
Cooling Degree Days 19    
Growing Degree Days 34 (Base 50)    
Moisture  
Dew Point 75 °F    
Average Humidity 76    
Maximum Humidity 100    
Minimum Humidity 56    
Precipitation  
Precipitation 0.05 in - - ()
Sea Level Pressure  
Sea Level Pressure 29.81 in    
Wind  
Wind Speed 6 mph (East)    
Max Wind Speed 15 mph    
Max Gust Speed 22 mph    
Visibility 10 miles    
Events Rain , Thunderstorm    
Averages and records for this station are not official NWS values.
T = Trace of Precipitation, MM = Missing Value Source: NWS Daily Summary

Daily Weather History Graph

Daily Weather History Graph

Search for Another Location

Airport or City:

Astronomy

Jul. 12, 2019 Rise Set
Actual Time 6:02 AM CDT 8:09 PM CDT
Civil Twilight 5:34 AM CDT 8:37 PM CDT
Nautical Twilight 5:00 AM CDT 9:11 PM CDT
Astronomical Twilight 4:24 AM CDT 9:48 PM CDT
Moon 4:33 PM CDT (7/12) 2:39 AM CDT (7/12)
Length of Visible Light 15h 02m
Length of Day
14h 07m
Waxing Gibbous, 83% of the Moon is Illuminated
Jul 12
Waxing Gibbous
Jul 16
Full
Jul 24
Last Quarter
Jul 31
New
Aug 7
First Quarter

Hourly Weather History & Observations

Time (CDT) Temp. Heat Index Dew Point Humidity Pressure Visibility Wind Dir Wind Speed Gust Speed Precip Events Conditions
12:53 AM 77.0 °F - 75.9 °F 96% 29.81 in 10.0 mi Calm Calm - N/A   Scattered Clouds
1:53 AM 77.0 °F - 77.0 °F 100% 29.82 in 10.0 mi East 3.5 mph - N/A   Overcast
2:53 AM 77.0 °F - 77.0 °F 100% 29.80 in 9.0 mi NE 4.6 mph - N/A   Scattered Clouds
3:53 AM 77.0 °F - 75.9 °F 96% 29.81 in 9.0 mi East 4.6 mph - N/A   Clear
4:53 AM 77.0 °F - 75.9 °F 96% 29.81 in 10.0 mi Calm Calm - N/A   Clear
5:53 AM 75.9 °F - 75.0 °F 97% 29.81 in 10.0 mi East 5.8 mph - N/A   Clear
6:53 AM 78.1 °F - 75.9 °F 93% 29.82 in 10.0 mi ENE 3.5 mph - N/A   Clear
7:53 AM 80.1 °F 85.4 °F 75.9 °F 87% 29.82 in 10.0 mi East 5.8 mph - N/A   Clear
8:53 AM 82.9 °F 90.8 °F 75.9 °F 79% 29.83 in 10.0 mi ENE 5.8 mph - N/A   Clear
9:53 AM 84.9 °F 94.1 °F 75.9 °F 74% 29.84 in 10.0 mi Variable 5.8 mph - N/A   Scattered Clouds
10:15 AM 87.1 °F 97.3 °F 75.9 °F 69% 29.87 in 10.0 mi East 8.1 mph - N/A   Mostly Cloudy
10:23 AM 87.1 °F 97.3 °F 75.9 °F 69% 29.87 in 10.0 mi Variable 5.8 mph - N/A   Scattered Clouds
10:53 AM 88.0 °F 97.5 °F 75.0 °F 65% 29.84 in 10.0 mi East 9.2 mph - N/A   Scattered Clouds
11:53 AM 90.0 °F 100.2 °F 75.0 °F 61% 29.84 in 10.0 mi East 8.1 mph - N/A   Mostly Cloudy
12:53 PM 91.0 °F 100.4 °F 73.9 °F 57% 29.82 in 10.0 mi NE 10.4 mph 16.1 mph N/A   Scattered Clouds
1:53 PM 93.0 °F 104.6 °F 75.0 °F 56% 29.79 in 10.0 mi ENE 8.1 mph 17.3 mph N/A   Scattered Clouds
2:53 PM 84.9 °F 95.3 °F 77.0 °F 77% 29.79 in 5.0 mi East 11.5 mph 21.9 mph 0.04 in Rain Rain
3:53 PM 90.0 °F 101.3 °F 75.9 °F 63% 29.78 in 10.0 mi ENE 8.1 mph - 0.01 in   Clear
4:32 PM 89.1 °F 98.0 °F 73.9 °F 61% 29.80 in 10.0 mi ENE 11.5 mph - N/A Thunderstorm Partly Cloudy
4:53 PM 89.1 °F 97.0 °F 73.0 °F 59% 29.77 in 10.0 mi ENE 12.7 mph - N/A   Clear
5:53 PM 91.0 °F 100.4 °F 73.9 °F 57% 29.76 in 10.0 mi East 13.8 mph 18.4 mph N/A   Clear
6:53 PM 89.1 °F 97.0 °F 73.0 °F 59% 29.77 in 10.0 mi East 15.0 mph 21.9 mph N/A   Partly Cloudy
7:53 PM 86.0 °F 93.8 °F 73.9 °F 67% 29.78 in 10.0 mi East 8.1 mph - N/A   Clear
8:53 PM 84.9 °F 93.3 °F 75.0 °F 72% 29.80 in 10.0 mi East 6.9 mph - N/A   Partly Cloudy
9:53 PM 82.9 °F 89.4 °F 73.9 °F 74% 29.82 in 10.0 mi ESE 11.5 mph - N/A   Clear
10:53 PM 82.0 °F 88.6 °F 75.0 °F 79% 29.83 in 10.0 mi East 8.1 mph - N/A   Clear
11:53 PM 81.0 °F 86.7 °F 75.0 °F 82% 29.82 in 10.0 mi ESE 8.1 mph - N/A   Clear